Time,TemperatureF,DewpointF,PressureIn,WindDirection,WindDirectionDegrees,WindSpeedMPH,WindSpeedGustMPH,Humidity,HourlyPrecipIn,Conditions,Clouds,dailyrainin,SoftwareType,DateUTC
2013-09-04 00:14:00,72.0,66.9,30.03,SE,135,0.0,2.0,84,0.00,,,-99.99,Weather View 32 v60,2013-09-04 05:14:00,
2013-09-04 00:29:00,71.0,65.9,30.04,NNE,22,0.0,2.0,84,0.00,,,-99.99,Weather View 32 v60,2013-09-04 05:29:00,
2013-09-04 00:44:00,71.0,65.6,30.04,NNW,337,0.0,1.0,83,0.00,,,-99.99,Weather View 32 v60,2013-09-04 05:44:00,
2013-09-04 00:59:00,70.0,64.9,30.05,NNW,337,0.0,0.0,84,0.00,,,-99.99,Weather View 32 v60,2013-09-04 05:59:00,
2013-09-04 01:14:00,69.0,62.9,30.05,NNW,337,0.0,0.0,81,0.00,,,-99.99,Weather View 32 v60,2013-09-04 06:14:00,
2013-09-04 01:18:00,69.0,62.9,30.05,NNW,337,0.0,0.0,81,0.00,,,-99.99,Weather View 32 v60,2013-09-04 06:18:00,
2013-09-04 01:29:00,68.0,61.2,30.06,NNW,337,0.0,0.0,79,0.00,,,-99.99,Weather View 32 v60,2013-09-04 06:29:00,
2013-09-04 01:44:00,67.0,61.0,30.06,NNW,337,0.0,0.0,81,0.00,,,-99.99,Weather View 32 v60,2013-09-04 06:44:00,
2013-09-04 01:59:00,67.0,58.8,30.07,NNW,337,0.0,0.0,75,0.00,,,-99.99,Weather View 32 v60,2013-09-04 06:59:00,
2013-09-04 02:14:00,66.0,58.6,30.07,NNW,337,0.0,0.0,77,0.00,,,-99.99,Weather View 32 v60,2013-09-04 07:14:00,
2013-09-04 02:19:00,66.0,58.6,30.07,NNW,337,0.0,0.0,77,0.00,,,-99.99,Weather View 32 v60,2013-09-04 07:19:00,
2013-09-04 02:29:00,66.0,57.1,30.08,NNW,337,0.0,0.0,73,0.00,,,-99.99,Weather View 32 v60,2013-09-04 07:29:00,
2013-09-04 02:44:00,66.0,55.9,30.08,NNW,337,0.0,0.0,70,0.00,,,-99.99,Weather View 32 v60,2013-09-04 07:44:00,
2013-09-04 02:59:00,65.0,54.6,30.08,NNW,337,0.0,0.0,69,0.00,,,-99.99,Weather View 32 v60,2013-09-04 07:59:00,
2013-09-04 03:14:00,65.0,53.7,30.08,NNW,337,0.0,0.0,67,0.00,,,-99.99,Weather View 32 v60,2013-09-04 08:14:00,
2013-09-04 03:20:00,65.0,53.7,30.08,NNW,337,0.0,0.0,67,0.00,,,-99.99,Weather View 32 v60,2013-09-04 08:20:00,
2013-09-04 03:29:00,64.0,52.0,30.08,NNW,337,0.0,0.0,65,0.00,,,-99.99,Weather View 32 v60,2013-09-04 08:29:00,
2013-09-04 03:44:00,64.0,51.5,30.08,NNW,337,0.0,0.0,64,0.00,,,-99.99,Weather View 32 v60,2013-09-04 08:44:00,
2013-09-04 03:59:00,64.0,52.0,30.08,NNW,337,0.0,0.0,65,0.00,,,-99.99,Weather View 32 v60,2013-09-04 08:59:00,
2013-09-04 04:14:00,63.0,51.0,30.09,NNW,337,0.0,0.0,65,0.00,,,-99.99,Weather View 32 v60,2013-09-04 09:14:00,
2013-09-04 04:20:00,63.0,51.0,30.09,NNW,337,0.0,0.0,65,0.00,,,-99.99,Weather View 32 v60,2013-09-04 09:20:00,
2013-09-04 04:29:00,63.0,51.0,30.10,NNW,337,0.0,0.0,65,0.00,,,-99.99,Weather View 32 v60,2013-09-04 09:29:00,
2013-09-04 04:44:00,63.0,50.6,30.10,NNW,337,0.0,0.0,64,0.00,,,-99.99,Weather View 32 v60,2013-09-04 09:44:00,
2013-09-04 04:59:00,63.0,50.6,30.10,NNW,337,0.0,0.0,64,0.00,,,-99.99,Weather View 32 v60,2013-09-04 09:59:00,
2013-09-04 05:14:00,62.0,49.2,30.11,ESE,112,0.0,0.0,63,0.00,,,-99.99,Weather View 32 v60,2013-09-04 10:14:00,
2013-09-04 05:21:00,62.0,49.2,30.11,ESE,112,0.0,0.0,63,0.00,,,-99.99,Weather View 32 v60,2013-09-04 10:21:00,
2013-09-04 05:29:00,62.0,49.2,30.11,NNW,337,0.0,0.0,63,0.00,,,-99.99,Weather View 32 v60,2013-09-04 10:29:00,
2013-09-04 05:44:00,62.0,48.8,30.12,NNW,337,0.0,0.0,62,0.00,,,-99.99,Weather View 32 v60,2013-09-04 10:44:00,
2013-09-04 05:59:00,62.0,48.8,30.12,East,90,0.0,0.0,62,0.00,,,-99.99,Weather View 32 v60,2013-09-04 10:59:00,
2013-09-04 06:14:00,62.0,49.2,30.12,East,90,0.0,0.0,63,0.00,,,-99.99,Weather View 32 v60,2013-09-04 11:14:00,
2013-09-04 06:21:00,62.0,49.2,30.12,East,90,0.0,0.0,63,0.00,,,-99.99,Weather View 32 v60,2013-09-04 11:21:00,
2013-09-04 06:29:00,62.0,48.8,30.12,NNW,337,0.0,0.0,62,0.00,,,-99.99,Weather View 32 v60,2013-09-04 11:29:00,
2013-09-04 06:44:00,62.0,48.8,30.12,ESE,112,0.0,0.0,62,0.00,,,-99.99,Weather View 32 v60,2013-09-04 11:44:00,
2013-09-04 06:59:00,62.0,48.8,30.13,WSW,247,0.0,0.0,62,0.00,,,-99.99,Weather View 32 v60,2013-09-04 11:59:00,
2013-09-04 07:14:00,63.0,49.7,30.12,WSW,247,0.0,0.0,62,0.00,,,-99.99,Weather View 32 v60,2013-09-04 12:14:00,
2013-09-04 07:22:00,63.0,49.7,30.12,WSW,247,0.0,0.0,62,0.00,,,-99.99,Weather View 32 v60,2013-09-04 12:22:00,
2013-09-04 07:29:00,64.0,50.2,30.13,SE,135,0.0,0.0,61,0.00,,,-99.99,Weather View 32 v60,2013-09-04 12:29:00,
2013-09-04 07:44:00,64.0,50.2,30.12,NE,45,0.0,0.0,61,0.00,,,-99.99,Weather View 32 v60,2013-09-04 12:44:00,
2013-09-04 07:59:00,65.0,51.6,30.13,NE,45,0.0,0.0,62,0.00,,,-99.99,Weather View 32 v60,2013-09-04 12:59:00,
2013-09-04 08:14:00,67.0,53.5,30.12,NE,45,0.0,0.0,62,0.00,,,-99.99,Weather View 32 v60,2013-09-04 13:14:00,
2013-09-04 08:23:00,67.0,53.5,30.12,NE,45,0.0,0.0,62,0.00,,,-99.99,Weather View 32 v60,2013-09-04 13:23:00,
2013-09-04 08:29:00,68.0,54.5,30.12,South,180,0.0,0.0,62,0.00,,,-99.99,Weather View 32 v60,2013-09-04 13:29:00,
2013-09-04 08:44:00,70.0,57.7,30.12,WSW,247,0.0,3.0,65,0.00,,,-99.99,Weather View 32 v60,2013-09-04 13:44:00,
2013-09-04 08:59:00,71.0,64.9,30.11,WSW,247,0.0,4.0,81,0.00,,,-99.99,Weather View 32 v60,2013-09-04 13:59:00,
2013-09-04 09:14:00,72.0,66.2,30.11,West,270,0.0,4.0,82,0.00,,,-99.99,Weather View 32 v60,2013-09-04 14:14:00,
2013-09-04 09:23:00,72.0,66.2,30.11,West,270,0.0,4.0,82,0.00,,,-99.99,Weather View 32 v60,2013-09-04 14:23:00,
2013-09-04 09:29:00,73.0,65.3,30.10,SSW,202,0.0,6.0,77,0.00,,,-99.99,Weather View 32 v60,2013-09-04 14:29:00,
2013-09-04 09:44:00,74.0,64.0,30.09,SW,225,0.0,6.0,71,0.00,,,-99.99,Weather View 32 v60,2013-09-04 14:44:00,
2013-09-04 09:59:00,76.0,65.1,30.08,South,180,3.0,6.0,69,0.00,,,-99.99,Weather View 32 v60,2013-09-04 14:59:00,
2013-09-04 10:14:00,77.0,65.2,30.08,WSW,247,0.0,6.0,67,0.00,,,-99.99,Weather View 32 v60,2013-09-04 15:14:00,
2013-09-04 10:24:00,77.0,65.2,30.08,WSW,247,0.0,6.0,67,0.00,,,-99.99,Weather View 32 v60,2013-09-04 15:24:00,
2013-09-04 10:29:00,77.0,64.7,30.08,SW,225,4.0,6.0,66,0.00,,,-99.99,Weather View 32 v60,2013-09-04 15:29:00,
2013-09-04 10:44:00,77.0,65.2,30.08,SSW,202,0.0,7.0,67,0.00,,,-99.99,Weather View 32 v60,2013-09-04 15:44:00,
2013-09-04 10:59:00,78.0,66.1,30.08,SW,225,0.0,7.0,67,0.00,,,-99.99,Weather View 32 v60,2013-09-04 15:59:00,
2013-09-04 11:14:00,79.0,66.6,30.08,West,270,4.0,7.0,66,0.00,,,-99.99,Weather View 32 v60,2013-09-04 16:14:00,
2013-09-04 11:24:00,79.0,66.6,30.08,West,270,4.0,7.0,66,0.00,,,-99.99,Weather View 32 v60,2013-09-04 16:24:00,
2013-09-04 11:44:00,79.0,66.2,30.08,West,270,0.0,7.0,65,0.00,,,-99.99,Weather View 32 v60,2013-09-04 16:44:00,
2013-09-04 11:59:00,80.0,65.8,30.08,WSW,247,0.0,7.0,62,0.00,,,-99.99,Weather View 32 v60,2013-09-04 16:59:00,
2013-09-04 12:14:00,80.0,66.2,30.08,SW,225,0.0,6.0,63,0.00,,,-99.99,Weather View 32 v60,2013-09-04 17:14:00,
2013-09-04 12:25:00,80.0,66.2,30.08,SW,225,0.0,6.0,63,0.00,,,-99.99,Weather View 32 v60,2013-09-04 17:25:00,
2013-09-04 12:44:00,78.0,66.1,30.08,South,180,0.0,4.0,67,0.00,,,-99.99,Weather View 32 v60,2013-09-04 17:44:00,
2013-09-04 12:59:00,78.0,67.0,30.08,South,180,0.0,0.0,69,0.00,,,-99.99,Weather View 32 v60,2013-09-04 17:59:00,
2013-09-04 13:14:00,81.0,66.7,30.06,North,360,0.0,0.0,62,0.00,,,-99.99,Weather View 32 v60,2013-09-04 18:14:00,
2013-09-04 13:25:00,81.0,66.7,30.06,North,360,0.0,0.0,62,0.00,,,-99.99,Weather View 32 v60,2013-09-04 18:25:00,
2013-09-04 13:44:00,82.0,64.7,30.05,SSE,157,0.0,0.0,56,0.00,,,-99.99,Weather View 32 v60,2013-09-04 18:44:00,
2013-09-04 13:59:00,82.0,68.1,30.05,WSW,247,0.0,0.0,63,0.00,,,-99.99,Weather View 32 v60,2013-09-04 18:59:00,
2013-09-04 14:14:00,83.0,66.6,30.04,SE,135,0.0,0.0,58,0.00,,,-99.99,Weather View 32 v60,2013-09-04 19:14:00,
2013-09-04 14:26:00,83.0,66.6,30.04,SE,135,0.0,0.0,58,0.00,,,-99.99,Weather View 32 v60,2013-09-04 19:26:00,
2013-09-04 14:44:00,85.0,67.5,30.04,SSE,157,0.0,6.0,56,0.00,,,-99.99,Weather View 32 v60,2013-09-04 19:44:00,
2013-09-04 14:59:00,85.0,68.5,30.02,ESE,112,0.0,6.0,58,0.00,,,-99.99,Weather View 32 v60,2013-09-04 19:59:00,
2013-09-04 15:14:00,87.0,68.3,30.01,South,180,0.0,6.0,54,0.00,,,-99.99,Weather View 32 v60,2013-09-04 20:14:00,
2013-09-04 15:27:00,87.0,68.3,30.01,South,180,0.0,6.0,54,0.00,,,-99.99,Weather View 32 v60,2013-09-04 20:27:00,
2013-09-04 15:44:00,87.0,66.0,30.01,ENE,67,0.0,0.0,50,0.00,,,-99.99,Weather View 32 v60,2013-09-04 20:44:00,
2013-09-04 15:59:00,89.0,68.4,30.00,ESE,112,0.0,0.0,51,0.00,,,-99.99,Weather View 32 v60,2013-09-04 20:59:00,
2013-09-04 16:14:00,87.0,68.3,30.02,ESE,112,0.0,0.0,54,0.00,,,-99.99,Weather View 32 v60,2013-09-04 21:14:00,
2013-09-04 16:27:00,87.0,68.3,30.02,ESE,112,0.0,0.0,54,0.00,,,-99.99,Weather View 32 v60,2013-09-04 21:27:00,
2013-09-04 16:44:00,89.0,64.8,29.99,WSW,247,0.0,0.0,45,0.00,,,-99.99,Weather View 32 v60,2013-09-04 21:44:00,
2013-09-04 16:59:00,87.0,65.5,30.01,WSW,247,0.0,3.0,49,0.00,,,-99.99,Weather View 32 v60,2013-09-04 21:59:00,
2013-09-04 17:14:00,87.0,67.2,30.00,ENE,67,0.0,3.0,52,0.00,,,-99.99,Weather View 32 v60,2013-09-04 22:14:00,
2013-09-04 17:28:00,87.0,67.2,30.00,ENE,67,0.0,3.0,52,0.00,,,-99.99,Weather View 32 v60,2013-09-04 22:28:00,
2013-09-04 17:44:00,83.0,66.1,30.02,SSW,202,0.0,7.0,57,0.00,,,-99.99,Weather View 32 v60,2013-09-04 22:44:00,
2013-09-04 17:59:00,82.0,66.2,30.02,East,90,0.0,7.0,59,0.00,,,-99.99,Weather View 32 v60,2013-09-04 22:59:00,
2013-09-04 18:14:00,82.0,66.7,30.03,ESE,112,0.0,7.0,60,0.00,,,-99.99,Weather View 32 v60,2013-09-04 23:14:00,
2013-09-04 18:28:00,82.0,66.7,30.03,ESE,112,0.0,7.0,60,0.00,,,-99.99,Weather View 32 v60,2013-09-04 23:28:00,
2013-09-04 18:44:00,81.0,67.6,30.03,SE,135,0.0,7.0,64,0.00,,,-99.99,Weather View 32 v60,2013-09-04 23:44:00,
2013-09-04 18:59:00,80.0,66.7,30.04,South,180,0.0,7.0,64,0.00,,,-99.99,Weather View 32 v60,2013-09-04 23:59:00,
2013-09-04 19:14:00,80.0,66.7,30.04,West,270,0.0,7.0,64,0.00,,,-99.99,Weather View 32 v60,2013-09-05 00:14:00,
2013-09-04 19:29:00,80.0,66.7,30.04,West,270,0.0,7.0,64,0.00,,,-99.99,Weather View 32 v60,2013-09-05 00:29:00,
2013-09-04 19:44:00,78.0,68.2,30.04,ESE,112,0.0,6.0,72,0.00,,,-99.99,Weather View 32 v60,2013-09-05 00:44:00,
2013-09-04 19:59:00,76.0,67.9,30.05,NNW,337,0.0,2.0,76,0.00,,,-99.99,Weather View 32 v60,2013-09-05 00:59:00,
2013-09-04 20:14:00,75.0,67.6,30.06,WSW,247,0.0,3.0,78,0.00,,,-99.99,Weather View 32 v60,2013-09-05 01:14:00,
2013-09-04 20:30:00,75.0,68.0,30.07,SSW,202,0.0,3.0,79,0.00,,,-99.99,Weather View 32 v60,2013-09-05 01:30:00,
2013-09-04 20:44:00,75.0,68.4,30.07,North,360,0.0,3.0,80,0.00,,,-99.99,Weather View 32 v60,2013-09-05 01:44:00,
2013-09-04 20:59:00,75.0,68.4,30.07,SSW,202,0.0,3.0,80,0.00,,,-99.99,Weather View 32 v60,2013-09-05 01:59:00,
2013-09-04 21:14:00,75.0,68.4,30.08,South,180,0.0,2.0,80,0.00,,,-99.99,Weather View 32 v60,2013-09-05 02:14:00,
2013-09-04 21:29:00,74.0,67.0,30.08,SSW,202,0.0,3.0,79,0.00,,,-99.99,Weather View 32 v60,2013-09-05 02:29:00,
2013-09-04 21:44:00,75.0,68.0,30.08,SW,225,0.0,4.0,79,0.00,,,-99.99,Weather View 32 v60,2013-09-05 02:44:00,
2013-09-04 21:59:00,74.0,66.7,30.10,East,90,0.0,4.0,78,0.00,,,-99.99,Weather View 32 v60,2013-09-05 02:59:00,
2013-09-04 22:14:00,74.0,66.7,30.09,ESE,112,0.0,4.0,78,0.00,,,-99.99,Weather View 32 v60,2013-09-05 03:14:00,
2013-09-04 22:29:00,74.0,66.7,30.09,WNW,292,0.0,4.0,78,0.00,,,-99.99,Weather View 32 v60,2013-09-05 03:29:00,
2013-09-04 22:44:00,74.0,66.3,30.09,West,270,1.0,6.0,77,0.00,,,-99.99,Weather View 32 v60,2013-09-05 03:44:00,
2013-09-04 22:59:00,74.0,65.5,30.09,SW,225,2.0,9.0,75,0.00,,,-99.99,Weather View 32 v60,2013-09-05 03:59:00,
2013-09-04 23:14:00,74.0,65.5,30.09,NNW,337,0.0,9.0,75,0.00,,,-99.99,Weather View 32 v60,2013-09-05 04:14:00,
2013-09-04 23:29:00,74.0,65.9,30.10,SSW,202,0.0,9.0,76,0.00,,,-99.99,Weather View 32 v60,2013-09-05 04:29:00,
2013-09-04 23:44:00,73.0,65.0,30.10,NW,315,0.0,9.0,76,0.00,,,-99.99,Weather View 32 v60,2013-09-05 04:44:00,
2013-09-04 23:59:00,73.0,65.0,30.10,West,270,0.0,7.0,76,0.00,,,-99.99,Weather View 32 v60,2013-09-05 04:59:00,